COSMOS 2354

导读

COSMOS 2354(宇宙2354)是独联体(CIS)发射的一颗“宇宙”系列卫星,于1998年6月15日08:00发射入轨。“宇宙”是苏联/俄罗斯最大的卫星系列,涵盖军用侦察、通信、导航等多种用途,也包含试验任务航天器,部分未入轨任务也编入该编号。作为该序列的军用卫星,它服役至今已近三十年,完成了既定空间任务,为航天应用积累了技术数据。

Basic Information
目录编号:
25365
目录名称:
COSMOS 2354
国际标识:
1998-036C
轨道中心:
EARTH
卫星名称:
COSMOS 2354
卫星全名:
--
卫星状态:
在轨 (已飞行10256 天)
发射日期:
1998-06-15 UTC
国别 :
俄罗斯(独联体) (CIS)
星等 :
--
Orbit Information
数据来源 国际轨道数据 AOE轨道数据
星历时间 2026-07-14T04:26:18+0800
8小时前
查看轨道信息
2026-07-11T05:00:00+0800
3天前
查看轨道信息
半长轴 7966.847km 7966.846km
偏心率 0.0353639 0.0353452
轨道倾角 82.586° 82.586°
近地点辐角 180.900° 187.157°
升交点赤经 331.558° 333.317°
平近点角 299.204° 176.554°
近地点 1306.971km 1307.119km
远地点 1870.449km 1870.299km
周期 117.948分钟 117.948分钟
每日圈数 12.208804 12.208805
Detailed Information
使用方式:
暂无
2D Orbit Map
3D Orbit Map
Orbit Altitude Analysis Chart
Orbit Inclination Analysis Chart
Orbit Comprehensive Analysis Chart
View Comprehensive Chart